Flag for Cyprus

Past Weather in Larnaca, Cyprus — Yesterday and Last 2 Weeks

Now
86 °F

Sunny.


Feels Like: 92 °F
Forecast: 91 / 74 °F
Wind: 7 mph from Northeast

Location: Larnaca Airport

Current Time: Jul 12, 2020 at 8:40:55 am

Latest Report: Jul 12, 2020 at 8:00 am


Visibility: 10 mi

Pressure: 29.65 "Hg

Humidity: 62%

Dew Point: 72 °F

Location of LarnacaLocation

Past Weather in Larnaca — Graph

°F

Larnaca Temperature Yesterday

Maximum temperature yesterday: 91 °F (at 2:30 pm)
Minimum temperature yesterday: 73 °F (at 5:30 am)
Average temperature yesterday: 82 °F

High & Low Weather Summary for the Past Weeks

 TemperatureHumidityPressure
High95 °F (Jul 4, 1:30 pm)94% (Jun 28, 12:00 am)29.77 "Hg (Jun 28, 12:00 am)
Low70 °F (Jun 30, 4:00 am)34% (Jul 4, 2:00 pm)29.50 "Hg (Jul 6, 3:30 pm)
Average82 °F74%29.66 "Hg
* Reported Jun 27 7:00 am — Jul 12 7:00 am, Larnaca. Weather by CustomWeather, © 2020

Note: Actual official high and low records may vary slightly from our data, if they occured in-between our weather recording intervals... More about our weather records

Larnaca Weather History for the Previous 24 Hours

Scroll right to see more
 ConditionsComfort  
Time TempWeatherWind HumidityBarometerVisibility
7:00 am
Sun, Jul 12
79 °FSunny.1 mph74%29.65 "Hg10 mi
6:30 am75 °FSunny.2 mph74%29.65 "Hg10 mi
6:00 am73 °FSunny.2 mph74%29.65 "Hg10 mi
5:30 am73 °FClear.2 mph78%29.65 "Hg10 mi
5:00 am73 °FClear.5 mph78%29.65 "Hg10 mi
4:30 am73 °FClear.1 mph78%29.65 "Hg10 mi
4:00 am73 °FClear.2 mph83%29.65 "Hg10 mi
3:30 am73 °FClear.2 mph83%29.65 "Hg10 mi
3:00 am75 °FClear.3 mph83%29.65 "Hg10 mi
2:30 am75 °FClear.3 mph89%29.65 "Hg10 mi
2:00 am77 °FClear.2 mph89%29.65 "Hg10 mi
1:30 am77 °FClear.2 mph89%29.65 "Hg10 mi
1:00 am77 °FClear.2 mph89%29.68 "Hg10 mi
12:30 am77 °FClear.2 mph89%29.68 "Hg4 mi
12:00 am79 °FFog.2 mph89%29.68 "Hg3 mi
11:30 pm
Sat, Jul 11
79 °FClear.5 mph89%29.68 "Hg4 mi
11:00 pm79 °FClear.2 mph89%29.68 "Hg4 mi
10:30 pm79 °FClear.6 mph89%29.68 "Hg4 mi
10:00 pm79 °FClear.5 mph89%29.68 "Hg4 mi
9:30 pm81 °FClear.7 mph89%29.68 "Hg4 mi
9:00 pm81 °FClear.9 mph89%29.68 "Hg5 mi
8:30 pm81 °FClear.9 mph89%29.68 "Hg5 mi
8:00 pm82 °FClear.12 mph84%29.68 "Hg10 mi
7:30 pm82 °FSunny.14 mph84%29.68 "Hg10 mi
7:00 pm84 °FSunny.15 mph79%29.68 "Hg10 mi
6:30 pm84 °FPassing clouds.18 mph79%29.68 "HgN/A
6:00 pm86 °FPassing clouds.22 mph75%29.68 "HgN/A
5:30 pm86 °FPassing clouds.23 mph75%29.68 "HgN/A
5:00 pm88 °FPassing clouds.22 mph70%29.68 "HgN/A
4:30 pm90 °FPassing clouds.24 mph71%29.68 "HgN/A
4:00 pm90 °FPassing clouds.21 mph67%29.68 "HgN/A
3:30 pm91 °FPassing clouds.20 mph63%29.68 "HgN/A
3:00 pm91 °FPassing clouds.20 mph63%29.68 "HgN/A
2:30 pm91 °FPassing clouds.15 mph63%29.71 "HgN/A
2:00 pm90 °FPassing clouds.12 mph63%29.71 "HgN/A
1:30 pm88 °FPassing clouds.13 mph70%29.71 "HgN/A
1:00 pm88 °FPassing clouds.13 mph75%29.74 "HgN/A
12:30 pm88 °FPassing clouds.14 mph75%29.74 "HgN/A
12:00 pm86 °FPassing clouds.14 mph79%29.74 "HgN/A
11:30 am84 °FPassing clouds.13 mph79%29.74 "HgN/A
11:00 am84 °FPassing clouds.13 mph79%29.74 "HgN/A
10:30 am86 °FPassing clouds.12 mph75%29.74 "HgN/A
10:00 am84 °FPassing clouds.10 mph79%29.74 "HgN/A
9:30 am84 °FPassing clouds.9 mph79%29.74 "HgN/A
9:00 am84 °FPassing clouds.9 mph79%29.74 "HgN/A
8:30 am82 °FPassing clouds.8 mph84%29.74 "HgN/A
8:00 am82 °FScattered clouds.7 mph84%29.74 "HgN/A
Weather by CustomWeather, © 2020

See weather overview